Location: Peebles
(55.6412°N, 3.1714°W)
Time: 12:21:38
(UTC+00:00)

RS-15 - Pass Details

Date: 01 December 2023
Orbit: 1893 x 2151 km, 64.8° (Epoch: 02 March)

Event Time Altitude Azimuth Distance (km) Brightness Sun altitude
Exits shadow 04:56:34 29° 312° (NW) 3,203 8.7 -26.9°
Maximum altitude 05:03:43 90° 229° (SW) 1,976 7.9 -25.9°
Drops below altitude 10° 05:14:48 10° 136° (SE) 4,306 10.4 -24.3°
Sets 05:18:00 0° 136° (SE) 5,285 11.0 -23.9°
